Regional Weather Roundup
Issued by NWS State College, PA

Current Version | Previous Version | Text Only | Print | Product List | Glossary On
Versions: 1 2 3 4 5 6 7 8 9 10 11 12 13 14 15 16 17 18 19 20 21 22 23 24 25 26 27 28 29 30 31 32 33 34 35 36 37 38 39 40 41 42 43 44 45 46 47 48 49 50
000
ASUS41 KCTP 041210
RWRCTP

REGIONAL WEATHER ROUNDUP
NATIONAL WEATHER SERVICE STATE COLLEGE PA
800 AM EDT WED MAY 04 2016

Note: "fair" indicates few or no clouds below 12,000 feet with no
significant weather and/or obstructions to visibility.

* = STATION THAT DOES NOT REPORT PRECIPITATION /E.G. RAIN...SNOW...ETC/
    THUNDER OR FOG.

PAZ002>004-007>009-013>016-020>023-029>032-041300-
WESTERN PENNSYLVANIA

CITY           SKY/WX    TMP DP  RH WIND       PRES   REMARKS
ERIE           MOSUNNY   49  43  80 S8        29.72R
MEADVILLE      SUNNY     44  42  93 E5        29.71S
FRANKLIN*      CLOUDY    39  37  93 CALM      29.74S VSB<1/4
NEW CASTLE     CLOUDY    42  41  96 CALM      29.73S
BEAVER COUNTY  CLOUDY    48  41  76 CALM      29.72S
BUTLER*        CLOUDY    48  41  76 CALM      29.75S
PITTSBURGH INT CLOUDY    51  44  77 CALM      29.71F
PITTSBURGH     CLOUDY    50  44  80 S3        29.72S
INDIANA*       CLOUDY    50  50 100 CALM      29.75F
LATROBE        CLOUDY    50  50 100 CALM      29.73S FOG
WASHINGTON CO* CLOUDY    50  45  81 CALM      29.73S
$$

PAZ004>006-010>012-017>019-024>028-033>037-041-042-045-046-049>053-041300-
CENTRAL PENNSYLVANIA

CITY           SKY/WX    TMP DP  RH WIND       PRES   REMARKS
BRADFORD       FOG       43  42  97 E3        29.72S VSB 1/4
DUBOIS         CLOUDY    45  43  93 E3        29.71S FOG
CLEARFIELD     LGT RAIN  45  43  93 NE3       29.73S VSB 1/4
JOHNSTOWN      CLOUDY    47  42  83 SW5       29.71S
ALTOONA        CLOUDY    50  45  83 E6        29.72S
STATE COLLEGE  CLOUDY    50  48  93 CALM      29.73S
WILLIAMSPORT   CLOUDY    53  49  86 CALM      29.73S
SELINSGROVE    CLOUDY    54  50  86 SE5       29.75R
FT INDIANTOWN  CLOUDY    50  50 100 E6        29.76S
CAPITAL CITY   CLOUDY    54  49  83 SE6       29.76R
HARRISBURG     LGT RAIN  53  49  86 E7        29.75R FOG
YORK           CLOUDY    52  50  93 E7        29.75R
$$

PAZ038>040-043-044-047-048-054-055-060>062-067>071-041300-
EASTERN PENNSYLVANIA

CITY           SKY/WX    TMP DP  RH WIND       PRES   REMARKS
SCRANTON       LGT RAIN  51  48  89 CALM      29.75S
MOUNT POCONO   LGT RAIN  46  44  93 SE7       29.77R VSB 1/4
ALLENTOWN      LGT RAIN  51  48  89 NE8       29.77F
QUAKERTOWN*    CLOUDY    48  48 100 E3        29.78F
READING        CLOUDY    51  48  89 NE3       29.76R
LANCASTER      LGT RAIN  50  49  96 E6        29.76R
COATESVILLE    CLOUDY    50  50 100 MISG      29.77R
POTTSTOWN      CLOUDY    50  50 100 E5        29.77F
BLUE BELL      CLOUDY    48  46  93 E6        29.76S
DOYLESTOWN     LGT RAIN  47  47 100 CALM      29.75F
WILLOW GROVE   NOT AVBL
NORTH PHILA    CLOUDY    51  48  89 E10       29.78F
PHILADELPHIA   CLOUDY    52  47  83 E9        29.77F
$$




USA.gov is the U.S. government's official web portal to all federal, state and local government web resources and services.